Aurora, NE

5:24 PM CST on December 16, 2017 (GMT -0600)
Aurora Municipal

Weather History for KAUH - March, 2014

Change the Weather History Date:

Saturday, March 1, 2014

  Actual Average Record
Temperature  
Mean Temperature 8 °F -  
Max Temperature 17 °F 46 °F 77 °F (1967)
Min Temperature 0 °F 23 °F -9 °F (1980)
Degree Days  
Heating Degree Days 56    
Moisture  
Dew Point 0 °F    
Average Humidity 70    
Maximum Humidity 77    
Minimum Humidity 64    
Precipitation  
Precipitation 0.00 in - - ()
Sea Level Pressure  
Sea Level Pressure 30.31 in    
Wind  
Wind Speed 18 mph (NNE)    
Max Wind Speed 26 mph    
Max Gust Speed 31 mph    
Visibility 8 miles    
Events Snow    
Averages and records for this station are not official NWS values.
T = Trace of Precipitation, MM = Missing Value Source: NWS Daily Summary

Daily Weather History Graph

Daily Weather History Graph

Search for Another Location

Airport or City:

Trip Planner

Search our weather history database for the weather conditions in past years. The results will help you decide how hot, cold, wet, or windy it might be!

Date:

Astronomy

Mar. 01, 2014 Rise Set
Actual Time 7:05 AM CST 6:23 PM CST
Civil Twilight 6:38 AM CST 6:50 PM CST
Nautical Twilight 6:06 AM CST 7:22 PM CST
Astronomical Twilight 5:34 AM CST 7:54 PM CST
Moon 7:00 AM CST (3/1) 7:12 PM CST (3/1)
Length of Visible Light 12h 12m
Length of Day
11h 17m
New Moon, 0% of the Moon is Illuminated
Mar 1
New Moon
Mar 8
First Quarter
Mar 16
Full
Mar 23
Last Quarter
Mar 30
New

Hourly Weather History & Observations

Time (CST) Temp. Windchill Dew Point Humidity Pressure Visibility Wind Dir Wind Speed Gust Speed Precip Events Conditions
12:15 AM 17.4 °F 0.6 °F 9.5 °F 71% 30.13 in 10.0 mi North 20.7 mph - N/A   Overcast
12:35 AM 16.7 °F 3.2 °F 8.2 °F 69% 30.15 in 10.0 mi North 12.7 mph 20.7 mph N/A   Overcast
12:55 AM 16.0 °F -1.7 °F 7.7 °F 70% 30.15 in 10.0 mi North 21.9 mph 26.5 mph N/A   Overcast
1:15 AM 15.6 °F -3.6 °F 6.6 °F 68% 30.15 in 10.0 mi North 26.5 mph 31.1 mph N/A   Overcast
1:35 AM 14.9 °F -1.3 °F 5.5 °F 66% 30.15 in 10.0 mi NNE 17.3 mph 26.5 mph N/A   Overcast
1:55 AM 14.0 °F -3.0 °F 3.9 °F 64% 30.15 in 10.0 mi North 18.4 mph 28.8 mph N/A   Overcast
2:15 AM 14.0 °F -2.0 °F 4.6 °F 66% 30.19 in 10.0 mi North 16.1 mph 21.9 mph N/A   Overcast
2:35 AM 14.0 °F -2.5 °F 4.5 °F 66% 30.19 in 10.0 mi North 17.3 mph 21.9 mph N/A   Overcast
2:55 AM 13.3 °F -4.4 °F 3.4 °F 65% 30.18 in 10.0 mi North 19.6 mph 23.0 mph N/A   Overcast
3:15 AM 13.1 °F -4.2 °F 5.0 °F 70% 30.16 in 10.0 mi North 18.4 mph - N/A   Overcast
3:35 AM 12.9 °F -2.8 °F 5.9 °F 74% 30.16 in 10.0 mi NNE 15.0 mph - N/A   Overcast
3:55 AM 12.2 °F -4.3 °F 4.1 °F 70% 30.21 in 10.0 mi North 16.1 mph 24.2 mph N/A   Overcast
4:15 AM 12.2 °F -4.3 °F 4.1 °F 70% 30.20 in 10.0 mi North 16.1 mph - N/A   Overcast
4:35 AM 12.0 °F -3.4 °F 4.6 °F 72% 30.21 in 10.0 mi North 13.8 mph - N/A   Overcast
4:55 AM 11.8 °F -4.8 °F 3.7 °F 70% 30.21 in 10.0 mi NNE 16.1 mph - N/A   Overcast
5:15 AM 11.7 °F -6.0 °F 3.2 °F 69% 30.20 in 10.0 mi NNE 18.4 mph - N/A   Overcast
5:35 AM 11.7 °F -5.5 °F 3.4 °F 69% 30.21 in 10.0 mi NNE 17.3 mph 23.0 mph N/A   Overcast
5:55 AM 11.3 °F -7.0 °F 3.9 °F 72% 30.21 in 10.0 mi NNE 19.6 mph - N/A   Overcast
6:15 AM 10.9 °F -7.0 °F 3.2 °F 71% 30.21 in 10.0 mi NNE 18.4 mph - N/A   Overcast
6:35 AM 10.8 °F -5.6 °F 3.4 °F 72% 30.23 in 10.0 mi NNE 15.0 mph - N/A   Overcast
6:55 AM 10.4 °F -6.0 °F 1.2 °F 66% 30.25 in 10.0 mi NNE 15.0 mph 24.2 mph N/A   Overcast
7:15 AM 9.9 °F -7.3 °F 1.4 °F 69% 30.27 in 10.0 mi NNE 16.1 mph - N/A   Overcast
7:35 AM 9.9 °F -7.3 °F 2.1 °F 71% 30.28 in 10.0 mi North 16.1 mph - N/A   Overcast
7:55 AM 9.5 °F -8.3 °F 2.3 °F 73% 30.29 in 10.0 mi NNE 17.3 mph - N/A   Overcast
8:15 AM 9.3 °F -9.6 °F -0.2 °F 65% 30.30 in 10.0 mi North 19.6 mph 26.5 mph N/A   Overcast
8:35 AM 9.0 °F -10.5 °F 0.1 °F 67% 30.30 in 10.0 mi NNE 20.7 mph 26.5 mph N/A   Overcast
8:55 AM 9.0 °F -11.8 °F 0.7 °F 69% 30.32 in 10.0 mi NNE 24.2 mph - N/A   Overcast
9:15 AM 9.0 °F -10.0 °F 1.4 °F 71% 30.32 in 10.0 mi NNE 19.6 mph 25.3 mph N/A   Overcast
9:40 AM 9.1 °F -10.3 °F 2.1 °F 73% 30.31 in 10.0 mi NNE 20.7 mph - N/A   Overcast
9:55 AM 9.0 °F -10.5 °F 2.1 °F 74% 30.32 in 7.0 mi NNE 20.7 mph 24.2 mph N/A   Overcast
10:15 AM 9.0 °F -10.5 °F 1.6 °F 72% 30.32 in 5.0 mi NNE 20.7 mph 25.3 mph N/A   Haze
10:35 AM 9.0 °F -9.5 °F 1.6 °F 72% 30.32 in 7.0 mi NNE 18.4 mph - N/A   Overcast
10:55 AM 9.3 °F -9.6 °F 1.4 °F 70% 30.32 in 10.0 mi NE 19.6 mph 25.3 mph N/A   Overcast
11:15 AM 9.5 °F -9.8 °F 1.2 °F 69% 30.33 in 10.0 mi NE 20.7 mph 25.3 mph N/A   Overcast
11:35 AM 9.3 °F -10.5 °F 1.0 °F 69% 30.34 in 10.0 mi NNE 21.9 mph 25.3 mph N/A   Overcast
11:55 AM 9.1 °F -9.3 °F 1.9 °F 73% 30.34 in 5.0 mi NNE 18.4 mph - N/A   Haze
12:15 PM 9.5 °F -7.8 °F 2.5 °F 73% 30.33 in 10.0 mi NE 16.1 mph - N/A   Overcast
12:35 PM 9.3 °F -8.0 °F 3.6 °F 77% 30.35 in 1.8 mi NNE 16.1 mph - N/A Snow Light Snow
12:55 PM 8.6 °F -9.5 °F 2.1 °F 75% 30.34 in 3.0 mi NNE 17.3 mph - N/A   Haze
1:15 PM 8.6 °F -9.5 °F 2.1 °F 75% 30.33 in 3.0 mi NNE 17.3 mph 20.7 mph N/A   Haze
1:35 PM 8.4 °F -9.7 °F 0.9 °F 71% 30.34 in 5.0 mi NNE 17.3 mph - N/A   Haze
1:55 PM 7.7 °F -10.7 °F 1.6 °F 76% 30.32 in 2.0 mi NNE 17.3 mph 20.7 mph N/A   Haze
2:15 PM 7.9 °F -9.3 °F 1.9 °F 77% 30.32 in 4.0 mi NNE 15.0 mph - N/A   Haze
2:35 PM 7.9 °F -10.4 °F 1.4 °F 75% 30.32 in 4.0 mi NNE 17.3 mph - N/A   Haze
2:55 PM 7.3 °F -10.6 °F 0.5 °F 74% 30.31 in 7.0 mi NE 16.1 mph 20.7 mph N/A   Overcast
3:15 PM 7.5 °F -10.9 °F 0.3 °F 72% 30.30 in 10.0 mi NE 17.3 mph - N/A   Overcast
3:35 PM 7.2 °F -12.4 °F -1.1 °F 69% 30.33 in 10.0 mi NE 19.6 mph - N/A   Overcast
3:55 PM 6.6 °F -12.6 °F -2.0 °F 68% 30.34 in 10.0 mi NNE 18.4 mph - N/A   Overcast
4:15 PM 5.9 °F -13.0 °F -2.0 °F 70% 30.34 in 10.0 mi NNE 17.3 mph - N/A   Overcast
4:35 PM 5.0 °F -15.2 °F -0.8 °F 77% 30.34 in 1.5 mi NNE 19.6 mph - N/A Snow Light Snow
4:55 PM 5.0 °F -16.2 °F -1.1 °F 76% 30.34 in 1.5 mi NNE 21.9 mph 26.5 mph N/A Snow Light Snow
5:15 PM 4.8 °F -16.4 °F -3.3 °F 69% 30.36 in 2.5 mi NNE 21.9 mph 26.5 mph N/A Snow Light Snow
5:35 PM 4.5 °F -17.4 °F -4.2 °F 67% 30.34 in 10.0 mi NNE 23.0 mph - N/A   Overcast
5:55 PM 4.1 °F -16.9 °F -4.0 °F 69% 30.36 in 7.0 mi NNE 20.7 mph 24.2 mph N/A Snow Light Snow
6:15 PM 3.7 °F -16.4 °F -3.8 °F 71% 30.36 in 4.0 mi NNE 18.4 mph - N/A Snow Light Snow
6:35 PM 3.6 °F -17.1 °F -3.1 °F 74% 30.37 in 4.0 mi NNE 19.6 mph - N/A Snow Light Snow
6:55 PM 3.0 °F -16.7 °F -4.0 °F 73% 30.39 in 7.0 mi North 17.3 mph - N/A   Overcast
7:15 PM 2.8 °F -17.0 °F -5.1 °F 70% 30.39 in 10.0 mi NNE 17.3 mph - N/A   Overcast
7:35 PM 2.3 °F -18.2 °F -6.3 °F 67% 30.40 in 10.0 mi NNE 18.4 mph - N/A   Overcast
7:55 PM 2.3 °F -16.4 °F -5.1 °F 71% 30.40 in 10.0 mi NNE 15.0 mph - N/A   Overcast
8:15 PM 2.3 °F -17.1 °F -5.1 °F 71% 30.42 in 10.0 mi NNE 16.1 mph 20.7 mph N/A   Overcast
8:35 PM 2.3 °F -17.1 °F -4.9 °F 72% 30.43 in 7.0 mi NNE 16.1 mph - N/A   Overcast
8:55 PM 2.3 °F -17.1 °F -6.0 °F 68% 30.42 in 10.0 mi NNE 16.1 mph - N/A   Overcast
9:15 PM 1.9 °F -19.8 °F -6.7 °F 67% 30.43 in 10.0 mi NNE 20.7 mph 24.2 mph N/A   Overcast
9:35 PM 1.4 °F -19.4 °F -6.2 °F 71% 30.45 in 10.0 mi North 18.4 mph - N/A   Overcast
9:55 PM 0.9 °F -20.1 °F -8.1 °F 66% 30.46 in 10.0 mi North 18.4 mph - N/A   Overcast
10:15 PM 0.5 °F -20.0 °F -7.8 °F 68% 30.46 in 10.0 mi NNE 17.3 mph - N/A   Overcast
10:35 PM 0.5 °F -20.6 °F -8.0 °F 68% 30.46 in 10.0 mi North 18.4 mph - N/A   Overcast
10:55 PM 0.3 °F -20.8 °F -8.5 °F 66% 30.46 in 10.0 mi North 18.4 mph - N/A   Overcast
11:15 PM 0.1 °F -21.6 °F -9.2 °F 65% 30.45 in 10.0 mi North 19.6 mph - N/A   Overcast
11:35 PM 0.3 °F -20.2 °F -8.5 °F 66% 30.45 in 10.0 mi North 17.3 mph - N/A   Overcast
11:55 PM 0.1 °F -21.0 °F -8.5 °F 67% 30.45 in 10.0 mi NNE 18.4 mph - N/A   Overcast